Denver Centennial, CO

3:30 PM MDT on July 20, 2017 (GMT -0600)
Centennial

Weather History for KAPA - May, 2007

Change the Weather History Date:

Sunday, May 20, 2007

  Actual Average Record
Temperature  
Mean Temperature 64 °F -  
Max Temperature 77 °F 69 °F 89 °F (2005)
Min Temperature 52 °F 41 °F 28 °F (2001)
Degree Days  
Heating Degree Days 2    
Growing Degree Days 14 (Base 50)    
Moisture  
Dew Point 40 °F    
Average Humidity 45    
Maximum Humidity 64    
Minimum Humidity 24    
Precipitation  
Precipitation 0.00 in - - ()
Sea Level Pressure  
Sea Level Pressure 29.81 in    
Wind  
Wind Speed 7 mph (SW)    
Max Wind Speed 17 mph    
Max Gust Speed 37 mph    
Visibility 10 miles    
Events      
Averages and records for this station are not official NWS values.
T = Trace of Precipitation, MM = Missing Value Source: NWS Daily Summary

Daily Weather History Graph

Daily Weather History Graph

Search for Another Location

Airport or City:

Trip Planner

Search our weather history database for the weather conditions in past years. The results will help you decide how hot, cold, wet, or windy it might be!

Date:

Astronomy

May. 20, 2007 Rise Set
Actual Time 5:41 AM MDT 8:11 PM MDT
Civil Twilight 5:10 AM MDT 8:42 PM MDT
Nautical Twilight 4:32 AM MDT 9:20 PM MDT
Astronomical Twilight 3:49 AM MDT 10:03 PM MDT
Moon 9:06 AM MDT No Moon Set
Length of Visible Light 15h 31m
Length of Day
14h 29m
Waxing Crescent, 20% of the Moon is Illuminated
May 20
Waxing Crescent
May 23
First Quarter
May 31
Full
Jun 8
Last Quarter
Jun 14
New

Hourly Weather History & Observations

Time (MDT) Temp. Dew Point Humidity Pressure Visibility Wind Dir Wind Speed Gust Speed Precip Events Conditions
12:53 AM 55.0 °F 43.0 °F 64% 29.90 in 10.0 mi South 4.6 mph - N/A   Scattered Clouds
1:53 AM 54.0 °F 42.1 °F 64% 29.88 in 10.0 mi South 11.5 mph - N/A   Scattered Clouds
2:53 AM 55.0 °F 39.9 °F 57% 29.86 in 10.0 mi SSW 4.6 mph - N/A   Scattered Clouds
3:53 AM 53.1 °F 39.9 °F 61% 29.86 in 10.0 mi South 4.6 mph - N/A   Scattered Clouds
4:53 AM 52.0 °F 39.9 °F 63% 29.87 in 10.0 mi SSW 8.1 mph - N/A   Scattered Clouds
5:53 AM 52.0 °F 39.0 °F 61% 29.87 in 10.0 mi WSW 5.8 mph - N/A   Scattered Clouds
6:53 AM 55.0 °F 42.1 °F 62% 29.87 in 10.0 mi WSW 4.6 mph - N/A   Scattered Clouds
7:53 AM 60.1 °F 41.0 °F 49% 29.88 in 10.0 mi SW 5.8 mph - N/A   Scattered Clouds
8:53 AM 64.9 °F 39.9 °F 40% 29.86 in 10.0 mi South 3.5 mph - N/A   Scattered Clouds
9:53 AM 68.0 °F 37.9 °F 33% 29.85 in 10.0 mi Variable 3.5 mph - N/A   Scattered Clouds
10:53 AM 73.0 °F 37.9 °F 28% 29.81 in 10.0 mi NNW 4.6 mph - N/A   Scattered Clouds
11:53 AM 75.0 °F 37.9 °F 26% 29.79 in 10.0 mi NNE 8.1 mph - N/A   Scattered Clouds
12:53 PM 75.0 °F 36.0 °F 24% 29.78 in 10.0 mi NE 6.9 mph - N/A   Mostly Cloudy
1:53 PM 75.0 °F 37.9 °F 26% 29.77 in 10.0 mi NE 3.5 mph - N/A   Mostly Cloudy
2:53 PM 73.9 °F 35.1 °F 24% 29.74 in 10.0 mi SE 3.5 mph - N/A   Mostly Cloudy
4:28 PM 69.8 °F 39.2 °F 33% 29.93 in 10.0 mi WNW 16.1 mph 36.8 mph N/A   Mostly Cloudy
4:30 PM 69.8 °F 39.2 °F 33% 29.93 in 10.0 mi NW 17.3 mph 36.8 mph N/A   Mostly Cloudy
4:53 PM 68.0 °F 41.0 °F 37% 29.79 in 10.0 mi WNW 13.8 mph 20.7 mph N/A   Mostly Cloudy
5:53 PM 64.9 °F 42.1 °F 43% 29.78 in 10.0 mi WNW 12.7 mph - N/A   Mostly Cloudy
6:53 PM 64.9 °F 41.0 °F 42% 29.76 in 10.0 mi WNW 6.9 mph - N/A   Mostly Cloudy
7:53 PM 62.1 °F 43.0 °F 50% 29.74 in 10.0 mi WSW 9.2 mph - N/A   Mostly Cloudy
8:53 PM 60.1 °F 39.9 °F 47% 29.72 in 10.0 mi SSW 12.7 mph - N/A   Mostly Cloudy
9:53 PM 57.0 °F 41.0 °F 55% 29.73 in 10.0 mi SE 9.2 mph - N/A   Scattered Clouds
10:53 PM 57.9 °F 41.0 °F 53% 29.70 in 10.0 mi South 9.2 mph - N/A   Scattered Clouds
11:53 PM 55.9 °F 41.0 °F 57% 29.69 in 10.0 mi South 12.7 mph - N/A   Scattered Clouds